Regional Weather Roundup
Issued by NWS

Home | Current Version | Previous Version | Text Only | Print | Product List | Glossary On
Versions: 1 2 3 4 5 6 7 8 9 10 11 12 13 14 15 16 17 18 19 20 21 22 23 24 25 26 27 28 29 30 31 32 33 34 35 36 37 38 39 40 41 42 43 44 45 46 47 48 49 50
000
ASUS44 KFWD 212015
RWRTX
NORTH TEXAS HOURLY WEATHER ROUNDUP
NATIONAL WEATHER SERVICE FORT WORTH TX
300 PM CDT THU AUG 21 2014

NOTE: "FAIR" INDICATES FEW OR NO CLOUDS BELOW 12,000 FEET WITH NO
SIGNIFICANT WEATHER AND/OR OBSTRUCTIONS TO VISIBILITY.

TXZ118-119-212100-
DALLAS/FORT WORTH METROPLEX

CITY           SKY/WX    TMP DP  RH WIND       PRES   REMARKS
DFW AIRPORT    MOSUNNY   97  69  40 S17G25    29.97F HX 103
DALLAS LOVE    MOSUNNY   96  68  39 S15       29.97F HX 101
FTW MEACHAM    MOSUNNY   99  68  36 S16G24    29.96F HX 104
DAL-EXECUTIVE  SUNNY     98  66  34 S8G21     29.98F HX 101
FTW-ALLIANCE   MOSUNNY   97  68  38 S9G22     29.96F HX 102
FTW-NAS-JRB    MOSUNNY  101  64  29 S13       30.00F HX 104
FTW-SPINKS     MOSUNNY   97  66  36 S20       29.99F HX 100
ARLINGTON      SUNNY     96  66  37 S14G21    29.97F HX  99
GRAND PRAIRIE  SUNNY     97  63  32 SE15      29.99F HX  98
ADDISON        MOSUNNY   95  66  38 S18       29.99F HX  98
LANCASTER      SUNNY     98  62  30 S10G18    30.00S HX  99
$$

TXZ091>094-102>105-117-120-121-131>134-212100-
NORTH CENTRAL TEXAS

CITY           SKY/WX    TMP DP  RH WIND       PRES   REMARKS
SHRMAN/DENISON MOSUNNY   94  69  43 S20       30.00F HX  99
GAINESVILLE    MOSUNNY   91  73  55 S14G21    29.99F HX 100
BOWIE          MOSUNNY   95  70  43 SE12G21   29.97F HX 102
BRIDGEPORT     MOSUNNY   97  65  34 S13G21    29.97F HX  99
DECATUR        MOSUNNY   94  68  43 SE12G20   29.98F HX  98
DENTON         MOSUNNY   96  70  42 S16G23    29.97F HX 102
MCKINNEY       SUNNY     95  69  42 S16G23    29.98F HX 100
GREENVILLE     MOSUNNY   99  61  28 SW15      30.00F HX  99
ROCKWALL       SUNNY     96  69  40 S20       29.98F HX 102
TERRELL        MOSUNNY   99  62  29 S15G21    29.99F HX 100
WAXAHACHIE     SUNNY     97  60  29 S14       30.00F HX  97
CLEBURNE       SUNNY     97  66  36 S13G20    30.00F HX 100
GRANBURY       SUNNY    100  64  30 S13G18    29.98F HX 103
$$

TXZ083>090-098>101-113>116-127>130-139>142-154-155-212100-
WESTERN NORTH TEXAS

CITY           SKY/WX    TMP DP  RH WIND       PRES   REMARKS
WICHITA FALLS  MOSUNNY  100  67  33 SW17G24   29.91F HX 105
WF-KICKAPOO    MOSUNNY  103  62  26 SW10G21   29.92F HX 105
VERNON         SUNNY    102  62  27 SW17      29.92F HX 103
ABILENE        MOSUNNY   95  68  41 S22G29    29.98F HX  99
ABILENE-DYESS  MOSUNNY   95  70  43 S18G26    29.97F HX 101
BRECKENRIDGE   MOSUNNY  100  63  29 SW18G28   29.95F HAZE    HX 101
GRAHAM         PTSUNNY   97  64  33 S9        29.92F HX  99
MINERAL WELLS  MOSUNNY   97  69  40 S18G25    29.95F HX 103
STEPHENVILLE   MOSUNNY   95  64  34 S10G20    30.02F HX  97
COMANCHE       SUNNY     98  57  25 S17G24    30.00F HX  97
BROWNWOOD      SUNNY     99  59  26 S12G26    30.00F HX  98
COLEMAN        MOSUNNY   92  64  39 S15G21    30.00F HX  93
BRADY          SUNNY     93  61  33 S15       30.02F HX  93
$$

TXZ143>147-156>162-174-175-212100-
CENTRAL TEXAS

CITY           SKY/WX    TMP DP  RH WIND       PRES   REMARKS
WACO           SUNNY     99  62  29 S20       29.99F HX 100
WACO-TSTC      SUNNY    100  59  25 S22       29.99F HX 100
WACO-MCGREGOR  SUNNY    100  63  28 S14G26    29.99F HX 102
HILLSBORO      SUNNY     98  62  30 S15G25    29.99F HX  99
CORSICANA      SUNNY    100  59  25 S15G21    30.00F HX 100
MEXIA          SUNNY     97  65  35 S12G17    29.99F HX 100
HEARNE           N/A    N/A N/A N/A MISG        N/A
CAMERON        SUNNY    100  65  31 S15G23    29.99F HX 102
TEMPLE         SUNNY     99  63  30 S22G30    29.99F HX 100
KILLEEN        MOSUNNY   97  63  32 S20G29    30.00F HX  98
KILLEEN-SKYLRK SUNNY     99  63  30 S14G24    30.00F HX 100
FORT HOOD      SUNNY    100  62  28 S16G28    30.00F HX 101
GATESVILLE     SUNNY     99  61  28 S14G24    30.02F HAZE    HX  99
HAMILTON       SUNNY     99  54  22 S20G33    30.02F HX  97
LAMPASAS       SUNNY     98  62  29 S14G20    30.00F HX  99
$$

TXZ095>097-106>112-122>126-135>138-148>153-164>167-212100-
EAST TEXAS

CITY           SKY/WX    TMP DP  RH WIND       PRES   REMARKS
PARIS          MOSUNNY   93  72  49 S9G17     30.02F HX 100
SULPHUR SPRNGS MOSUNNY   94  67  40 SE10G25   30.03F HX  98
CLARKSVILLE      N/A     95  70  44 S9        30.02F VSB 1   HX 102
MOUNT PLEASANT MOSUNNY   95  68  41 S12G17    30.04F HX  99
GILMER         SUNNY     95  72  46 SW9       30.04F HX 103
MINEOLA        MOSUNNY   95  66  38 S9        30.03F HX  98
TYLER          MOSUNNY   97  66  36 S10G20    30.03F HX 100
LONGVIEW       MOSUNNY   95  70  44 S14G21    30.03F HX 101
MARSHALL       MOSUNNY   96  75  49 S10       30.06F HX 107
ATHENS         SUNNY     93  68  43 S13       30.01F HX  97
PALESTINE      SUNNY     96  67  39 S13       30.04F HX  99
JACKSONVILLE   MOSUNNY   93  69  46 S8        30.08F HX  98
HENDERSON      MOSUNNY   94  70  45 S10       30.06F HX 100
NACOGDOCHES    MOSUNNY   93  72  49 SW10G16   30.05F HX 100
LUFKIN         MOSUNNY   96  68  39 S12       30.05F HX 101
$$

SUPPLEMENTAL OBSERVATIONS (CENTRAL)

CITY           SKY/WX    TMP DP  RH WIND       PRES   REMARKS
CADDO GRASSLND   N/A     93  70  46 S14         N/A  HX  99
PAT MAYSE LAKE   N/A     90  70  51 SE14        N/A  HX  95
PALESTINE        N/A     97  68  38 S7G17       N/A  HX 101
LAKE LIMESTONE   N/A     99  64  32 S13         N/A  HX 101
MCGREGOR         N/A    100  59  25 SW12G24     N/A  HX 100
TEMPLE           N/A     99  63  30 S17G26      N/A  HX 100
$$

SUPPLEMENTAL OBSERVATIONS (WEST)

CITY           SKY/WX    TMP DP  RH WIND       PRES   REMARKS
MILLERS CREEK    N/A     99  68  36 S14G25      N/A  HX 104
POSSUM KINGDOM   N/A     97  64  34 S14         N/A  HX  99
LBJ GRASSLAND    N/A     97  72  44 SE13        N/A  HX 105
GRANBURY         N/A     99  63  30 S16G25      N/A  HX 100
COMANCHE         N/A     97  59  28 S17G29      N/A  HX  96
HAMBY            N/A     97  68  38 S22G29      N/A  HX 101
IVIE RESERVOIR   N/A     99  63  30 S16G23      N/A  HX 100
COLORADO BEND    N/A     97  57  26 S12G24      N/A  HX  95
$$

SUPPLEMENTAL OBSERVATIONS (EAST)

CITY           SKY/WX    TMP DP  RH WIND       PRES   REMARKS
CLARKSVILLE      N/A     93  70  46 S10         N/A  HX  99
TEXARKANA        N/A     97  73  46 S2          N/A  HX 107
LINDEN           N/A     97  70  41 SW6         N/A  HX 103
CADDO LAKE       N/A     97  72  44 SW3         N/A  HX 105
GILMER           N/A     97  70  41 S9          N/A  HX 103
HENDERSON        N/A     93  70  46 S9G17       N/A  HX  99
LUFKIN           N/A     93  75  55 MISG        N/A  HX 104
N SABINE NF      N/A     95  73  49 MISG        N/A  HX 105
S SABINE NF      N/A     88  77  70 N1          N/A  HX 100
$$

SUPPLEMENTAL OBSERVATIONS ARE A COLLECTION OF AUTOMATED INSTRUMENTS
THAT ARE MAINTAINED BY A VARIETY OF FEDERAL AND STATE AGENCIES.
CERTAIN ELEMENTS...SUCH AS HUMIDITY VALUES AND SUSTAINED WIND
SPEEDS...MAY BE APPROXIMATED.



USA.gov is the U.S. government's official web portal to all federal, state and local government web resources and services.